EUTELSAT KA-SAT 9A

Last updated on Sun Apr 05 2026 00:02:49 GMT+0000 (Coordinated Universal Time)

1 37258U 10069A 26093.82152869 .00000060 00000+0 00000+0 0 9996 2 37258 0.0602 1.2423 0003496 135.8807 359.7614 1.00269682 43265
UTC large
Height (km)
Speed (km/s)
/
Latitude / Longitude
Inclination (degrees)
Orbital Period (minutes)
Azimuth
Elevation
Range (km)
Doppler Factor

Next 0 passes for location: London (51.5072 / 0.1276)

Sorry there are no passes over London.